Regional Weather Roundup
Issued by NWS Grand Forks, ND

Home | Current Version | Previous Version | Graphics & Text | Print | Product List | Glossary Off
Versions: 1 2 3 4 5 6 7 8 9 10 11 12 13 14 15 16 17 18 19 20 21 22 23 24 25 26 27 28 29 30 31 32 33 34 35 36 37 38 39 40 41 42 43 44 45 46 47 48 49 50

000
ASUS43 KFGF 301110
RWRFGF
PRAIRIE TO PINES  WEATHER ROUNDUP
NATIONAL WEATHER SERVICE EASTERN NORTH DAKOTA/GRAND FORKS ND
600 AM CDT SUN APR 30 2017

 **SATELLITE DATA USED TO AUGMENT SKY COVER AT AUTOMATED STATIONS**
 *****  WEATHER ACROSS EASTERN NORTH DAKOTA  *****

CITY           SKY/WX    TMP DP  RH WIND       PRES   REMARKS
GRAND FORKS    MOCLDY    39  31  72 S8        30.18R
GRAND FRKS AFB FAIR      35  28  74 S6        30.17R
DEVILS LAKE    NOT AVBL
FARGO          FAIR      37  27  67 NE3       30.16S
WAHPETON ARPT  FAIR      39  23  52 NE6       30.14F
$$

 ***** WEATHER ACROSS CENTRAL AND WESTERN NORTH DAKOTA  *****

CITY           SKY/WX    TMP DP  RH WIND       PRES   REMARKS
BISMARCK       FAIR      33  26  75 NE3       30.13F
MINOT          FAIR      45  21  38 SW8       30.06S
JAMESTOWN      FAIR      32  28  85 N3        30.12F
MINOT AFB      FAIR      42  24  48 S12       30.05S
GARRISON         N/A     35  22  58 S3        30.09S
WILLISTON      FAIR      38  25  59 S3        30.03S
DICKINSON      FAIR      28  18  66 S10       30.06S WCI  19
HETTINGER      FAIR      24  18  77 CALM      30.10F
$$

 *****  OTHER AIRPORT OBSERVATIONS IN OUR AREA  *****

CITY           SKY/WX    TMP DP  RH WIND       PRES   REMARKS
WALHALLA       NOT AVBL
GRAFTON AIRPOR FAIR      34  34 100 SE8       30.18R
VALLEY CITY AR FAIR      36  25  64 CALM      30.15F
CANDO          NOT AVBL
CAVALIER APRT  FAIR      36  28  75 S5        30.15S
GWINNER        SUNNY     37  30  75 MISG      30.12F
SHEYENNE NWR     N/A     34  26  73 E7        29.95S
ROLLA          FAIR      36  25  64 SW9       30.11R
 ***** THE ABOVE OBSERVATIONS ARE NON NWS ARE NOT QUALITY
       CONTROLLED AND MAY MIS-REPORT RAIN FOR SNOW...
$$

  *****  WEATHER ACROSS NORTHERN MINNESOTA  *****

CITY           SKY/WX    TMP DP  RH WIND       PRES   REMARKS
FLAG ISLAND    FAIR      39  28  65 SE9       30.20R
WARROAD        FAIR      37  28  70 S7        30.20R
ROSEAU         FAIR      37  28  70 S7        30.19R
HALLOCK        FAIR      36  27  69 SE10      30.17R
THF RVR FALLS  FAIR      36  27  69 CALM      30.20R
BAUDETTE       FAIR      34  21  59 SE6       30.21R
WASKISH        FAIR      34  25  69 CALM      30.21S
CROOKSTON      FAIR      36  30  80 S7        30.20R
STEPHEN NDAWN    N/A     36  27  69 SE8         N/A
GREENBUSH NDAW   N/A     36  28  75 S7          N/A
$$
  *****  WEATHER ACROSS CENTRAL AND WEST MINNESOTA  *****

CITY           SKY/WX    TMP DP  RH WIND       PRES   REMARKS
FOSSTON        FAIR      34  19  55 CALM      30.19R
BEMIDJI        FAIR      35  22  61 E7        30.19S
PARK RAPIDS    FAIR      39  19  44 NE5       30.16F
ELBOW LAKE     FAIR      40  26  57 NE7       30.11F
WADENA         FAIR      36  23  60 NE7       30.14F
DETROIT LAKES  FAIR      37  23  56 CALM      30.17S
MOORHEAD       FAIR      36  27  69 E6        30.17F
FERGUS FALLS   FAIR      39  23  52 NE5       30.13F
MORRIS MN      FAIR      39  27  60 NE8       30.09F
STAPLES        FAIR      36  21  55 NE6       30.14F
$$
  *****  WEATHER ELSEWHERE ACROSS MINNESOTA  *****

CITY           SKY/WX    TMP DP  RH WIND       PRES   REMARKS
DULUTH         FAIR      37  14  38 E13       30.18S
INTRNTL FALLS  FAIR      29  22  75 CALM      30.23R
ELY            FAIR      27  19  74 CALM      30.23R
CLOQUET        FAIR      37   9  30 E10       30.17F
WHEATON        FAIR      39  25  56 N3        30.14F
BRAINERD       FAIR      36  19  50 NE8       30.15F
HIBBING        FAIR      28  19  69 N5        30.21R WCI  23
ALEXANDRIA     FAIR      39  24  55 NE10      30.11F
SAINT CLOUD    FAIR      39  22  50 NE9       30.10F
MINNEAPOLIS    CLOUDY    44  23  43 NE13      30.06F
$$

  *****  WEATHER ACROSS SOUTH DAKOTA  *****

CITY           SKY/WX    TMP DP  RH WIND       PRES   REMARKS
SIOUX FALLS    CLOUDY    44  29  55 NE13      29.99F
BROOKINGS      FAIR      40  25  55 NE9       30.02F
WATERTOWN      FAIR      35  23  61 N8        30.05F
HURON          FAIR      39  27  62 N10       30.05F
SISSETON         N/A     36  29  75 N7        30.10F
ABERDEEN       FAIR      31  26  82 N8        30.09F WCI  23
MITCHELL       FAIR      40  29  64 N8        30.03F
PIERRE         FAIR      34  23  64 N12       30.06F
MOBRIDGE       FAIR      32  22  66 CALM      30.08F
RAPID CITY     FAIR      34  21  59 W15       30.07F WCI  24
$$

  *****  SOME WEATHER IN NEARBY STATES *****

CITY           SKY/WX    TMP DP  RH WIND       PRES   REMARKS
GLASGOW MT     FAIR      36  30  79 E12       29.96F
GREAT FALLS MT MOCLDY    46  28  49 SW16      29.92F
CHEYENNE WY    FAIR      28  14  55 NW16      30.03F WCI  16
SCOTTSBLUFF NE FAIR      29  24  82 W8        30.07S WCI  21
OMAHA NE       RAIN      39  35  86 N16       29.80F FOG
DES MOINES IA  DRIZZLE   41  39  93 NE15G22   29.83F
DAVENPORT IA   CLOUDY    43  41  93 E21G30    29.84F
CHICAGO IL     DRIZZLE   42  41  96 NE14      29.92R
EAU CLAIRE WI  CLOUDY    43  22  43 E16G24    30.07F
LA CROSSE WI   CLOUDY    45  29  53 NE12      30.00F
$$

  *****  SOME NATIONAL WEATHER *****

CITY           SKY/WX    TMP DP  RH WIND       PRES   REMARKS
LA GUARDIA NY  PTSUNNY   60  39  45 NE12      30.21R
RALEIGH NC     MOCLDY    71  67  87 S7        30.18R
ATLANTA GA     CLOUDY    69  66  90 SE8       30.07R
NEW ORLEANS LA CLOUDY    79  73  82 S20G37    29.79R
OKLAHOMA CITY  CLOUDY    46  45  96 SW15      29.56F
ALBUQUERQUE NM CLOUDY    37  35  92 S6        30.04F
SALT LAKE CITY FAIR      39  30  70 SE6       30.19R
LOS ANGELES CA FAIR      59  41  51 NE5       30.05S
BOISE ID       FAIR      48  30  49 SE8       30.10S
SEATTLE WA     CLOUDY    48  47  96 SW8       30.15R
$$

*** WEATHER ACROSS MANITOBA...SASKATCHEWAN AND ONTARIO ***
                ***ONTARIO***

CITY           SKY/WX    TMP DP  RH WIND       PRES   REMARKS
GERALDTON      MOCLDY    25  19  80 CALM      30.32S
THUNDER BAY    MOCLDY    27  23  86 CALM      30.29R
SIOUX LOOKOUT  MOCLDY    32  19  59 SE6       30.23S
TORONTO        LGT RAIN  39  32  75 E15G24    30.24F
BIG TROUT LK   CLEAR     28  18  64 SE7       30.21F WCI  21
PICKLE LAKE    PTCLDY    30  16  55 S3        30.25
DRYDEN         MOCLDY    34  19  55 SE6       30.22R
KENORA         MOCLDY    37  19  48 S7        30.20R
$$
                *** MANITOBA***

CITY           SKY/WX    TMP DP  RH WIND       PRES   REMARKS
BRANDON        MOCLDY    34  27  75 E5        30.06S
DAUPHIN        MOCLDY    28  25  86 W5        30.03F WCI  23
ISLAND LAKE    PTCLDY    37  19  48 S3        30.04F
PILOT MOUND      N/A     34  27  75 S10         N/A
THE PAS        PTCLDY    30  28  93 SE2       30.03F
THOMPSON       PTCLDY    28  21  74 NE5       30.07F WCI  23
WINNIPEG       MOCLDY    41  25  52 S13       30.13S
LYNN LAKE      CLEAR     25  21  86 VRB2      30.04F
CHURCHILL      CLOUDY    27  19  74 SW9       30.09F WCI  17
GILLAM         MOCLDY    28  14  54 E3        30.13F
$$
                ***SASKATCHEWAN***

CITY           SKY/WX    TMP DP  RH WIND       PRES   REMARKS
ESTEVAN        PTCLDY    41  36  81 CALM      30.01S
KINDERSLEY     MOCLDY    32  32 100 E8        29.83F WCI  25
LLOYDMINSTER   MOCLDY    32  32 100 E5        29.84F
PRINCE ALBERT  PTCLDY    28  27  93 E7        29.96F WCI  21
REGINA         PTCLDY    36  34  93 SE6       29.95F
YORKTON        LGT RAIN  39  34  81 SE5       29.99F
N. BATTLEFORD  CLEAR     32 N/A N/A E7        29.90F
LA RONGE       CLEAR     30  23  74 CALM      29.99F
SASKATOON      PTCLDY    30  28  93 NE7       29.92F WCI  23
SWIFT CURRENT  MOCLDY    37  34  87 S14       29.86F
$$
NOTE: THESE ARE AUTOMATED STATIONS WITH LIMITED QUALITY CONTROL
      "FAIR" INDICATES FEW OR NO CLOUDS BELOW 12,000 FEET WITH NO
      SIGNIFICANT WEATHER AND/OR OBSTRUCTIONS TO VISIBILITY.
      SKY/WX - SKY CONDITION AND SIGNIFICANT WEATHER.
      TMP - AIR TEMPERATURE.    DP   - DEWPOINT TEMPERATURE.
      RH  - RELATIVE HUMIDITY.  PRES - PRESSURE.
      HX  - HEAT INDEX.         WCI  - WIND CHILL INDEX.
$




USA.gov is the U.S. government's official web portal to all federal, state and local government web resources and services.